User: anonymous   Login
Location: Unspecified
(54.8312°N, 0.0000°E)
Time: 10:10:08
(UTC+00:00)
Language:

ISS - Orbit

View from above orbital plane
View from above orbital plane
View from above satellite
View from above satellite

Ground track
Ground track

The orbit data is extracted from the following two-line orbital elements,

1 25544U 98067A   19348.18772651  .00016717  00000-0  10270-3 0  9032
2 25544  51.6372 188.9384 0007460  31.9076 328.2525 15.50121158  3177
Epoch (UTC): 14 December 2019 04:30:19
Eccentricity: 0.0007460
inclination: 51.6372°
perigee height: 411 km
apogee height: 421 km
right ascension of ascending node: 188.9384°
argument of perigee: 31.9076°
revolutions per day: 15.50121158
mean anomaly at epoch: 328.2525°
orbit number at epoch: 317

The dashed part of the orbit path shows where the satellite is in the earth's shadow,  

DLR